Location: Ca�n Batista
(41.4099°N, 1.7752°E)
Time: 14:26:41
(UTC+00:00)

SeaSat 1 - Pass Details

Date: 03 March 2021
Orbit: 744 x 747 km, 108.0° (Epoch: 21 April)

Event Time Altitude Azimuth Distance (km) Brightness Sun altitude
Rises 19:35:16 0° 19° (NNE) 3,198 5.6 -21.2°
Reaches altitude 10° 19:37:37 10° 13° (NNE) 2,271 4.9 -21.6°
Maximum altitude 19:42:15 42° 304° (WNW) 1,063 3.6 -22.5°
Drops below altitude 10° 19:46:51 10° 234° (SW) 2,260 5.4 -23.3°
Sets 19:49:12 0° 227° (SW) 3,180 6.2 -23.8°
